TITAN 3C TRANSTAGE DEB, 19592

Orbit data source: Space-Track

TITAN 3C TRANSTAGE DEB, 19592 is space debris in HEO originally from a launch on Tue, 21 Dec 1965 UTC launched from the Air Force Eastern Test Range (AFETR). Debris objects in space refer to the collection of defunct objects orbiting the Earth. Examples of debris include non-operational satellites, rocket bodies, and fragments generated from explosions, collisions, or faulty payload assembly.

Loading next visibility...
Identifier
19592, 1965-108AA
Orbit
HEO
Country
Flag of USUS
Related business
Manufacturer
Unknown
Mission
Spacecraft
Bus & Motor
Unknown
Mass
Unknown
Launch date (UTC)
1965-12-21 (60 years ago)
Launch vehicle
Unknown
Launch site
Air Force Eastern Test Range (AFETR)
Object type
Payload
Rocket body
Debris
Shape & HBR
Unknown shape, 0.3 m
Radar Cross Section
Medium (>0.1 m² and <1 m²)

Expand to show TLE details & history
Last TLE update: 1 day ago

TLE from 1 day ago
0 TITAN 3C TRANSTAGE DEB
1 19592U 65108AA  26111.56081696  .00001772  00000-0  78770-2 0  9996
2 19592  26.6003 218.9336 6732671 215.5834  77.9950  2.84276248343737
Epoch: 2026-04-21T13:27Z
TLE epoch observation values (Epoch: 2026-04-21T13:27:34.585Z)
Latitude
1.40798°
Longitude
170.24983°
Altitude
20,312.027 km
Speed
3.306 km/s
True Right ascension
14h 47m 06s
True Declination
1° 24' 21"
Sunlit
Object was in daylight at epoch
Visualization orbit readout
Latitude
Unknown
Longitude
Unknown
Altitude
Unknown
Speed
Unknown
Apparent Right ascension
Unknown
Apparent Declination
Unknown
Sunlit
N/A
Visualization observer readout
Local Sidereal Time
01:00:37
Azimuth
Unknown
Elevation
Unknown
Doppler factor
Unknown
Orbital elements
Apogee altitude
28,849.351 km
Perigee altitude
500.609 km
Semi-major axis
21,053.117 km
Eccentricity
0.67327
Inclination
26.6003°
RAAN
218.9336°
Arg. of periapsis
215.5834°
True anomaly
147.62639°
Mean anomaly
77.995°
Eccentric anomaly
113.3982°
Mean motion
0.71051 °/min
Orbital period
506.68 mins
BSTAR
0.007877
Loading maneuver chart data...
Computing Atmospheric mass density...

Documentation

Showing up to 5 results
|